Temp
53 53 52 52 52 52 51 51 51 51 50 49 49 49 49 49 48 48 49 49 49 49 49 50 50 51 52 53 53 53 53 53 54 54 54 54 54 54 54 54 54 53 53 52 52 52 52 52 53 53 53 54 54 53 53 54 55 55 55 55 55 56 56 56 56 56 56 55 54
53 53 53 53 52 52 52 52 51 50 50 50 50 49 49 49 49 49 49 49 49 50 50 50 51 52 53 53 53 53 53 53 53 53 53 53 53 54 54 53 53 53 52 52 51 51 52 52 53 53 53 53 52 52 52 54 55 55 55 55 55 55 56 55 55 55 55 54 53
53 53 53 52 52 52 53 53 52 52 51 51 51 51 50 50 50 49 49 49 50 50 50 50 51 52 53 53 53 53 53 52 52 52 52 52 52 52 52 51 51 51 51 51 50 50 51 52 52 52 52 52 51 51 52 53 54 54 54 54 54 55 55 54 54 54 54 53 53
54 53 53 53 53 54 54 54 53 53 52 52 52 52 52 52 51 51 50 50 50 50 50 50 51 52 52 52 52 52 52 52 52 52 51 51 51 51 50 50 49 49 50 50 50 50 51 52 52 52 51 51 50 50 51 52 53 53 53 53 54 54 54 54 54 54 54 53 53
55 55 55 56 56 56 56 55 55 54 53 53 52 52 51 51 51 51 51 51 50 50 50 51 51 51 52 52 52 51 51 52 52 51 51 50 50 49 49 48 48 48 48 49 50 51 52 53 52 51 50 50 50 50 51 52 53 53 52 52 53 53 53 53 53 53 53 53 53
55 56 56 57 57 57 57 56 56 55 55 54 53 52 51 51 51 51 50 50 50 51 51 51 51 51 51 51 51 51 50 51 51 50 50 49 48 48 48 47 47 47 48 48 50 51 51 50 48 48 49 50 51 51 52 53 53 53 52 52 52 53 53 53 53 53 53 53 53
55 56 56 56 57 57 57 56 56 55 55 55 54 53 52 51 51 51 51 51 50 51 51 51 51 51 51 51 50 50 50 49 49 49 49 49 48 48 48 48 48 48 48 49 49 49 48 48 47 48 49 50 50 51 52 53 53 52 52 51 51 52 52 52 52 53 53 53 53
55 55 55 56 56 56 56 56 56 55 55 54 54 53 52 51 51 51 52 52 51 51 51 51 51 51 51 50 50 49 49 49 48 49 49 49 49 49 49 49 50 50 50 50 49 48 48 48 49 50 50 51 51 52 52 53 53 53 52 51 51 51 51 52 52 52 53 53 53
55 55 55 55 55 55 55 55 55 55 54 54 53 53 52 51 51 51 51 51 51 51 51 51 51 51 51 51 50 49 49 49 48 48 49 49 49 49 50 50 50 50 50 50 49 49 49 49 50 51 52 52 52 53 53 53 53 53 53 52 51 51 51 51 52 52 53 53 53
54 54 54 54 54 54 54 54 54 54 54 53 53 53 52 51 51 51 51 51 51 51 51 51 51 51 51 50 49 49 49 49 49 49 49 49 50 50 50 50 50 49 49 50 49 49 50 50 51 52 53 53 53 53 53 53 53 53 53 52 52 51 51 51 52 53 53 53 53
53 53 53 53 53 53 53 53 53 53 52 52 52 52 52 52 51 51 51 51 51 51 50 51 51 50 50 49 49 49 49 49 49 49 49 49 50 50 50 49 49 49 49 49 50 50 51 52 52 53 53 53 53 53 53 53 54 54 53 53 52 52 52 52 53 53 53 53 54
53 53 53 53 53 53 52 52 52 52 51 51 51 51 51 51 51 51 50 50 50 50 50 50 50 50 49 49 48 49 49 49 49 48 48 49 49 49 49 49 49 49 49 49 50 51 52 53 52 52 52 52 52 53 53 54 54 54 54 53 53 53 53 53 54 54 54 54 54
53 53 52 52 52 52 52 51 51 51 51 51 51 51 51 50 50 50 50 49 49 49 49 50 49 49 48 48 48 48 48 48 48 47 47 48 48 48 48 48 48 48 49 50 51 52 53 52 52 52 52 52 52 53 54 54 55 55 54 54 54 54 54 54 54 54 54 54 54
54 53 53 53 52 52 52 51 51 50 50 50 50 50 50 50 50 50 50 49 49 49 49 48 48 48 48 48 48 48 48 48 47 47 47 47 48 47 47 47 47 48 49 51 52 52 52 52 52 52 52 52 52 53 54 55 55 55 55 55 54 54 55 55 55 55 54 54 54
54 53 53 53 52 52 51 51 50 50 50 50 50 50 50 49 50 50 49 49 49 48 48 48 47 47 47 47 47 47 47 47 47 47 47 47 47 47 47 47 48 49 50 51 51 52 52 52 52 52 53 52 53 54 55 55 56 56 55 55 55 55 55 55 55 55 55 55 55
53 53 53 53 52 52 51 51 51 50 50 50 50 50 50 50 50 50 49 49 48 48 48 47 47 47 47 47 47 47 46 47 47 47 47 47 47 47 48 49 49 50 50 51 51 51 52 52 52 53 53 53 53 54 55 55 55 56 55 55 56 56 55 55 55 56 55 55 55
54 53 53 53 53 52 52 51 51 50 50 50 50 50 50 50 49 49 49 48 48 48 47 47 47 47 47 46 46 46 46 46 46 47 47 47 48 48 49 50 50 51 51 51 51 51 51 52 52 53 53 53 54 54 55 55 55 55 55 56 56 56 56 56 56 56 56 56 55
54 54 54 54 53 53 52 52 51 51 51 51 50 50 50 49 49 49 49 48 48 48 47 47 47 47 47 46 46 47 47 47 47 47 48 48 49 50 50 50 51 51 51 51 52 52 52 52 52 53 54 54 54 54 55 55 55 55 55 55 56 56 56 56 56 56 56 56 56
55 55 55 54 54 54 53 52 52 51 51 51 50 50 50 49 49 49 48 48 48 48 48 47 47 47 47 47 47 47 47 47 48 49 49 50 50 50 51 51 51 51 51 52 52 53 53 53 53 53 54 54 54 54 54 55 55 55 55 55 55 55 55 55 56 56 56 56 56
55 55 55 55 55 54 54 53 52 52 52 51 51 50 50 49 49 49 48 48 48 48 48 47 47 47 47 47 47 48 48 48 49 50 50 50 50 51 51 51 51 51 52 52 52 53 53 53 53 54 54 54 54 54 54 54 54 54 54 55 55 55 55 55 55 55 55 55 56
56 56 56 56 55 55 55 54 53 53 52 52 51 51 50 50 50 49 49 49 49 48 48 48 47 47 47 47 47 48 48 49 50 50 50 51 51 51 51 51 51 51 52 52 52 53 53 53 54 54 55 54 54 54 54 54 54 54 54 55 55 55 55 54 54 54 54 54 55
56 56 56 56 56 55 55 54 54 53 53 52 52 51 51 50 50 50 49 49 49 48 48 48 48 48 48 48 48 48 49 50 50 51 51 52 52 52 52 52 52 52 52 52 52 53 53 53 54 54 54 55 55 54 54 54 54 54 54 54 55 54 54 54 54 54 53 53 53
56 56 56 56 55 55 54 54 54 53 53 52 52 51 51 50 50 50 49 49 49 48 48 48 48 48 48 49 49 50 50 51 52 52 52 52 52 52 52 52 52 52 52 52 52 52 52 52 53 54 54 55 55 55 54 54 54 54 54 54 54 54 53 53 53 53 53 53 53
56 56 55 55 55 55 55 54 53 53 52 52 52 51 51 51 50 50 50 50 50 50 50 49 49 49 49 50 51 51 52 53 53 53 53 53 53 52 52 52 52 52 51 51 51 51 51 52 52 53 54 55 55 54 54 54 54 54 54 53 53 53 53 53 53 53 53 53 53
56 56 56 55 54 54 54 54 53 53 53 53 53 52 52 51 51 51 51 51 51 51 51 51 50 50 51 52 53 54 54 54 54 53 53 53 53 53 52 52 51 51 51 51 51 52 52 52 53 53 54 54 54 54 54 54 54 54 54 53 53 53 52 52 52 52 53 53 53
56 56 55 55 55 54 54 54 53 53 53 54 54 53 52 52 52 52 52 51 51 51 51 51 51 52 53 54 55 55 55 55 55 54 54 53 53 53 52 52 52 52 52 52 52 52 53 53 53 54 54 54 54 54 54 54 54 53 53 53 53 52 52 52 52 53 53 53 54
56 55 55 55 55 54 54 54 53 53 53 53 53 53 52 53 53 53 52 51 51 51 51 52 53 54 55 56 56 56 55 55 55 55 55 54 54 54 53 54 54 54 53 53 53 53 53 54 54 54 54 54 54 53 53 53 53 53 53 52 52 52 52 52 53 53 53 53 53
55 55 55 55 55 54 54 53 53 53 53 53 53 52 52 53 53 52 51 51 51 51 51 53 54 55 55 56 56 56 56 55 55 55 55 55 55 55 55 56 55 55 54 54 54 54 54 55 54 54 54 54 54 53 53 53 53 53 52 52 52 52 53 53 53 54 53 53 53
55 55 55 55 54 54 53 53 53 53 53 53 53 52 52 52 52 51 51 51 51 51 52 53 54 55 55 55 55 55 55 55 55 55 55 55 55 55 56 57 56 56 55 54 54 55 55 55 55 55 54 54 54 53 53 53 52 52 52 53 53 53 53 53 53 53 53 53 53
55 55 55 54 54 53 53 53 53 53 53 53 53 52 52 51 51 51 51 51 51 52 52 53 53 53 54 55 55 55 54 54 54 54 54 55 55 56 56 57 57 56 55 54 55 55 56 56 55 55 54 54 53 53 53 52 52 53 53 53 53 53 53 53 53 53 53 53 53
54 54 54 54 54 53 53 53 53 53 53 53 52 52 51 51 51 51 51 51 52 52 52 52 52 53 54 54 54 53 53 54 54 54 54 55 55 56 57 57 57 56 55 55 55 56 56 56 56 55 55 54 54 54 54 53 53 53 53 53 53 53 53 53 52 52 52 53 53
54 54 54 54 53 53 52 52 53 53 53 52 52 51 51 51 51 51 51 51 51 51 51 51 52 53 53 53 53 53 53 53 53 53 54 55 55 56 56 56 57 56 55 55 56 56 57 57 56 55 55 54 54 54 54 55 54 54 54 54 53 53 53 53 53 53 52 53 53
54 54 54 53 53 53 52 52 53 53 52 51 51 51 51 51 51 51 51 51 51 50 51 52 52 52 51 51 53 53 53 53 53 53 54 55 56 56 56 56 56 56 55 55 56 56 57 57 57 56 55 54 54 54 55 55 55 55 55 54 54 53 53 53 53 53 53 53 53
53 53 53 53 53 53 53 53 53 52 52 51 51 51 51 50 50 50 50 51 51 51 52 52 52 52 52 53 53 53 53 53 53 54 55 56 56 56 56 55 54 54 54 55 56 56 57 57 57 56 55 54 55 55 56 55 55 55 55 54 53 53 53 52 52 52 52 52 52
53 53 53 52 52 52 52 52 52 52 52 51 51 51 51 50 49 49 50 51 51 52 52 53 53 53 53 54 54 54 54 54 54 55 55 55 55 55 55 55 54 53 54 55 56 57 57 57 57 56 55 54 55 55 56 55 55 55 54 54 53 52 52 52 52 52 52 52 52
53 53 53 52 52 52 52 52 52 52 52 51 51 51 51 50 50 50 51 51 52 52 53 52 53 53 53 53 53 53 54 55 55 55 55 55 55 55 55 54 54 54 54 55 56 57 57 57 56 56 55 54 55 55 55 55 55 54 54 53 53 52 52 51 51 51 51 52 52
53 53 53 53 53 52 52 52 52 52 52 52 52 52 51 51 51 51 51 52 52 53 53 53 53 53 53 52 53 54 55 55 55 55 55 55 55 55 55 55 55 55 55 55 56 57 57 57 56 56 55 55 54 54 55 55 55 54 53 53 53 53 52 52 51 51 51 51 51
54 54 54 53 53 53 52 52 53 53 53 53 53 53 53 52 51 51 51 52 53 53 53 53 53 54 54 54 54 54 55 55 55 55 55 55 55 56 56 56 56 56 55 55 56 56 56 57 56 55 55 55 54 54 54 54 54 54 53 53 53 53 52 52 52 51 51 51 50
54 54 54 54 53 53 53 53 53 53 53 53 53 53 53 53 52 52 52 53 53 53 53 53 54 54 55 55 55 55 55 55 55 55 55 55 56 56 56 56 56 56 56 55 55 56 56 56 56 55 55 55 55 55 55 54 53 53 53 53 53 53 52 52 52 51 51 51 49
55 55 55 54 54 54 53 53 54 54 54 54 54 54 53 53 53 53 54 54 54 54 54 54 54 55 55 55 55 55 55 55 55 56 56 56 56 55 55 56 56 57 56 55 55 55 55 56 56 55 55 56 56 55 55 54 53 53 53 53 53 52 52 52 52 52 51 51 50
55 55 55 55 55 55 54 54 55 55 55 54 54 54 54 54 54 54 54 55 55 55 55 55 55 55 55 55 56 55 55 55 55 56 56 56 56 55 55 55 56 57 57 56 55 55 55 56 56 55 55 56 56 56 55 54 53 53 52 52 53 52 52 52 52 52 52 52 52
MSLP
1019.24 1019.32 1019.44 1019.56 1019.68 1019.80 1019.96 1020.12 1020.32 1020.52 1020.64 1020.80 1020.96 1021.12 1021.24 1021.40 1021.52 1021.64 1021.72 1021.80 1021.92 1022.00 1022.04 1022.08 1022.20 1022.40 1022.64 1022.80 1022.92 1023.04 1023.20 1023.36 1023.44 1023.56 1023.64 1023.72 1023.84 1023.96 1024.08 1024.20 1024.24 1024.32 1024.40 1024.56 1024.68 1024.80 1024.92 1025.08 1025.20 1025.36 1025.48 1025.60 1025.76 1025.92 1026.00 1026.08 1026.12 1026.12 1026.12 1026.16 1026.16 1026.16 1026.12 1026.04 1026.04 1026.04 1026.08 1026.12 1026.20
1019.36 1019.44 1019.56 1019.68 1019.80 1019.92 1020.08 1020.24 1020.44 1020.64 1020.80 1020.92 1021.04 1021.24 1021.40 1021.52 1021.56 1021.68 1021.76 1021.88 1021.96 1022.08 1022.12 1022.20 1022.28 1022.48 1022.64 1022.80 1022.96 1023.08 1023.24 1023.40 1023.56 1023.68 1023.84 1023.96 1024.00 1024.08 1024.16 1024.24 1024.32 1024.40 1024.48 1024.56 1024.68 1024.84 1025.04 1025.16 1025.28 1025.44 1025.64 1025.80 1025.96 1026.08 1026.12 1026.16 1026.20 1026.20 1026.16 1026.16 1026.20 1026.16 1026.12 1026.12 1026.12 1026.16 1026.20 1026.24 1026.32
1019.44 1019.56 1019.68 1019.76 1019.84 1019.96 1020.08 1020.24 1020.44 1020.64 1020.84 1020.96 1021.12 1021.24 1021.40 1021.56 1021.68 1021.80 1021.88 1022.00 1022.12 1022.20 1022.24 1022.32 1022.44 1022.56 1022.72 1022.88 1023.04 1023.16 1023.32 1023.52 1023.68 1023.84 1023.96 1024.12 1024.20 1024.24 1024.28 1024.28 1024.36 1024.44 1024.56 1024.72 1024.84 1024.96 1025.16 1025.28 1025.44 1025.60 1025.80 1025.92 1026.04 1026.12 1026.16 1026.24 1026.24 1026.24 1026.24 1026.24 1026.24 1026.24 1026.20 1026.24 1026.24 1026.32 1026.36 1026.40 1026.48
1019.56 1019.60 1019.68 1019.80 1019.84 1019.92 1020.04 1020.20 1020.40 1020.60 1020.84 1021.00 1021.16 1021.32 1021.44 1021.60 1021.72 1021.84 1021.96 1022.08 1022.20 1022.24 1022.28 1022.40 1022.52 1022.68 1022.84 1022.96 1023.12 1023.28 1023.44 1023.60 1023.80 1023.96 1024.12 1024.24 1024.32 1024.36 1024.36 1024.32 1024.44 1024.60 1024.76 1024.88 1025.00 1025.16 1025.32 1025.44 1025.60 1025.72 1025.88 1025.96 1026.08 1026.12 1026.24 1026.32 1026.32 1026.32 1026.32 1026.36 1026.36 1026.36 1026.40 1026.44 1026.52 1026.52 1026.56 1026.60 1026.68
1019.56 1019.60 1019.68 1019.76 1019.84 1019.92 1020.04 1020.16 1020.40 1020.60 1020.80 1020.96 1021.16 1021.32 1021.48 1021.60 1021.80 1021.92 1022.00 1022.08 1022.16 1022.24 1022.40 1022.48 1022.64 1022.84 1023.04 1023.12 1023.24 1023.40 1023.56 1023.72 1023.92 1024.08 1024.20 1024.28 1024.40 1024.44 1024.44 1024.44 1024.60 1024.76 1024.92 1025.08 1025.20 1025.32 1025.44 1025.56 1025.68 1025.84 1025.96 1026.04 1026.12 1026.24 1026.36 1026.40 1026.40 1026.40 1026.40 1026.44 1026.48 1026.52 1026.52 1026.56 1026.64 1026.68 1026.68 1026.68 1026.76
1019.56 1019.64 1019.68 1019.76 1019.84 1019.92 1020.04 1020.24 1020.40 1020.60 1020.80 1020.96 1021.12 1021.32 1021.48 1021.68 1021.80 1021.92 1022.04 1022.16 1022.24 1022.32 1022.44 1022.60 1022.76 1022.96 1023.12 1023.24 1023.36 1023.52 1023.68 1023.84 1024.00 1024.12 1024.24 1024.40 1024.48 1024.56 1024.60 1024.68 1024.76 1024.92 1025.12 1025.28 1025.40 1025.52 1025.64 1025.72 1025.84 1025.96 1026.04 1026.12 1026.20 1026.32 1026.40 1026.44 1026.40 1026.40 1026.44 1026.52 1026.52 1026.56 1026.60 1026.68 1026.72 1026.76 1026.80 1026.84 1026.84
1019.60 1019.68 1019.76 1019.84 1019.88 1019.96 1020.12 1020.28 1020.48 1020.64 1020.80 1020.96 1021.12 1021.28 1021.48 1021.68 1021.80 1021.92 1022.04 1022.16 1022.28 1022.40 1022.52 1022.64 1022.80 1022.96 1023.16 1023.28 1023.40 1023.56 1023.76 1023.96 1024.12 1024.24 1024.32 1024.40 1024.52 1024.60 1024.72 1024.84 1024.96 1025.12 1025.24 1025.40 1025.52 1025.64 1025.72 1025.84 1025.92 1026.04 1026.12 1026.24 1026.28 1026.36 1026.40 1026.40 1026.40 1026.40 1026.40 1026.44 1026.56 1026.64 1026.68 1026.72 1026.84 1026.84 1026.84 1026.84 1026.84
1019.72 1019.84 1019.84 1019.92 1020.00 1020.12 1020.24 1020.40 1020.52 1020.68 1020.84 1021.04 1021.16 1021.36 1021.56 1021.72 1021.84 1021.96 1022.12 1022.20 1022.32 1022.44 1022.52 1022.68 1022.80 1022.96 1023.12 1023.24 1023.44 1023.68 1023.84 1024.04 1024.16 1024.28 1024.40 1024.48 1024.56 1024.68 1024.84 1024.96 1025.08 1025.20 1025.32 1025.44 1025.56 1025.68 1025.80 1025.88 1025.96 1026.08 1026.12 1026.16 1026.24 1026.28 1026.32 1026.36 1026.36 1026.36 1026.40 1026.48 1026.56 1026.68 1026.76 1026.80 1026.88 1026.92 1026.88 1026.88 1026.92
1019.84 1019.96 1020.00 1020.08 1020.20 1020.28 1020.40 1020.52 1020.64 1020.76 1020.96 1021.12 1021.24 1021.44 1021.64 1021.80 1021.96 1022.08 1022.16 1022.28 1022.40 1022.48 1022.56 1022.72 1022.88 1023.04 1023.12 1023.28 1023.44 1023.68 1023.84 1024.04 1024.24 1024.36 1024.48 1024.56 1024.68 1024.80 1024.92 1025.00 1025.12 1025.24 1025.36 1025.52 1025.60 1025.72 1025.84 1025.96 1025.96 1025.96 1026.00 1026.08 1026.12 1026.20 1026.24 1026.28 1026.28 1026.32 1026.40 1026.52 1026.60 1026.72 1026.84 1026.88 1026.96 1026.96 1026.96 1026.96 1026.92
1019.92 1020.00 1020.12 1020.24 1020.36 1020.44 1020.56 1020.68 1020.76 1020.88 1021.04 1021.20 1021.40 1021.56 1021.76 1021.88 1022.00 1022.12 1022.24 1022.32 1022.44 1022.56 1022.68 1022.84 1023.00 1023.16 1023.28 1023.40 1023.52 1023.68 1023.88 1024.12 1024.24 1024.40 1024.52 1024.68 1024.72 1024.84 1024.92 1025.04 1025.16 1025.28 1025.40 1025.52 1025.68 1025.76 1025.84 1025.88 1025.88 1025.88 1025.92 1025.96 1026.08 1026.16 1026.24 1026.32 1026.32 1026.32 1026.40 1026.52 1026.64 1026.72 1026.84 1026.96 1026.96 1026.96 1026.96 1026.96 1026.96
1020.00 1020.12 1020.20 1020.32 1020.44 1020.56 1020.68 1020.80 1020.92 1021.04 1021.20 1021.36 1021.56 1021.68 1021.84 1021.96 1022.12 1022.24 1022.40 1022.48 1022.60 1022.72 1022.84 1022.96 1023.12 1023.24 1023.40 1023.56 1023.68 1023.80 1023.96 1024.12 1024.28 1024.44 1024.52 1024.68 1024.72 1024.84 1024.96 1025.12 1025.24 1025.32 1025.40 1025.56 1025.68 1025.72 1025.76 1025.80 1025.84 1025.84 1025.96 1026.04 1026.12 1026.20 1026.28 1026.36 1026.32 1026.36 1026.44 1026.52 1026.68 1026.72 1026.84 1026.92 1026.96 1026.96 1026.96 1026.96 1026.96
1020.08 1020.16 1020.28 1020.40 1020.52 1020.60 1020.72 1020.88 1021.04 1021.16 1021.28 1021.44 1021.60 1021.76 1021.92 1022.04 1022.20 1022.36 1022.52 1022.60 1022.68 1022.80 1022.96 1023.12 1023.24 1023.36 1023.52 1023.68 1023.84 1023.96 1024.08 1024.24 1024.36 1024.52 1024.60 1024.68 1024.84 1024.96 1025.08 1025.16 1025.28 1025.40 1025.48 1025.60 1025.64 1025.68 1025.68 1025.76 1025.84 1025.92 1026.00 1026.12 1026.20 1026.24 1026.28 1026.32 1026.28 1026.32 1026.40 1026.52 1026.60 1026.68 1026.76 1026.84 1026.88 1026.92 1026.92 1026.92 1026.92
1020.12 1020.24 1020.40 1020.48 1020.56 1020.68 1020.84 1020.96 1021.08 1021.20 1021.32 1021.48 1021.64 1021.84 1021.96 1022.12 1022.28 1022.44 1022.56 1022.68 1022.76 1022.88 1023.04 1023.24 1023.36 1023.52 1023.68 1023.84 1023.96 1024.08 1024.20 1024.32 1024.44 1024.56 1024.68 1024.80 1024.92 1025.04 1025.12 1025.24 1025.40 1025.48 1025.56 1025.56 1025.60 1025.64 1025.68 1025.80 1025.88 1025.96 1026.04 1026.16 1026.24 1026.28 1026.24 1026.24 1026.24 1026.28 1026.36 1026.48 1026.52 1026.60 1026.68 1026.76 1026.80 1026.84 1026.88 1026.92 1026.88
1020.16 1020.28 1020.40 1020.52 1020.64 1020.76 1020.88 1021.00 1021.12 1021.28 1021.40 1021.56 1021.68 1021.84 1022.04 1022.20 1022.36 1022.52 1022.60 1022.72 1022.84 1023.00 1023.16 1023.36 1023.52 1023.68 1023.84 1023.96 1024.12 1024.20 1024.32 1024.40 1024.52 1024.64 1024.72 1024.84 1024.96 1025.08 1025.16 1025.32 1025.40 1025.48 1025.56 1025.60 1025.68 1025.72 1025.80 1025.84 1025.96 1026.00 1026.12 1026.20 1026.24 1026.28 1026.24 1026.24 1026.24 1026.24 1026.32 1026.40 1026.44 1026.52 1026.56 1026.64 1026.72 1026.80 1026.84 1026.84 1026.84
1020.24 1020.32 1020.44 1020.56 1020.68 1020.80 1020.92 1021.04 1021.20 1021.36 1021.48 1021.60 1021.76 1021.88 1022.08 1022.24 1022.40 1022.52 1022.68 1022.80 1022.96 1023.12 1023.24 1023.40 1023.60 1023.80 1023.96 1024.12 1024.24 1024.36 1024.40 1024.52 1024.60 1024.68 1024.80 1024.92 1025.00 1025.12 1025.24 1025.32 1025.40 1025.48 1025.56 1025.68 1025.80 1025.84 1025.88 1025.92 1025.96 1026.08 1026.12 1026.24 1026.24 1026.28 1026.24 1026.24 1026.24 1026.28 1026.32 1026.40 1026.40 1026.44 1026.52 1026.56 1026.64 1026.68 1026.72 1026.76 1026.76
1020.28 1020.40 1020.48 1020.60 1020.72 1020.84 1020.96 1021.12 1021.24 1021.40 1021.56 1021.68 1021.80 1021.96 1022.12 1022.24 1022.40 1022.56 1022.72 1022.84 1023.00 1023.16 1023.32 1023.44 1023.60 1023.84 1024.08 1024.24 1024.40 1024.48 1024.52 1024.60 1024.68 1024.76 1024.84 1024.96 1025.08 1025.20 1025.24 1025.36 1025.44 1025.56 1025.68 1025.84 1025.92 1025.96 1026.00 1026.00 1026.08 1026.12 1026.20 1026.24 1026.24 1026.28 1026.28 1026.28 1026.28 1026.32 1026.36 1026.40 1026.40 1026.44 1026.52 1026.56 1026.60 1026.64 1026.68 1026.68 1026.68
1020.28 1020.40 1020.52 1020.56 1020.72 1020.84 1020.96 1021.12 1021.28 1021.44 1021.56 1021.68 1021.84 1022.00 1022.16 1022.28 1022.48 1022.64 1022.80 1022.88 1023.04 1023.24 1023.40 1023.52 1023.68 1023.84 1024.04 1024.24 1024.44 1024.52 1024.64 1024.68 1024.76 1024.84 1024.92 1025.00 1025.12 1025.24 1025.28 1025.40 1025.52 1025.68 1025.84 1025.92 1025.96 1026.04 1026.08 1026.12 1026.16 1026.20 1026.24 1026.24 1026.28 1026.32 1026.36 1026.40 1026.40 1026.40 1026.40 1026.40 1026.44 1026.44 1026.48 1026.52 1026.56 1026.60 1026.64 1026.68 1026.68
1020.28 1020.40 1020.52 1020.60 1020.72 1020.88 1021.04 1021.20 1021.32 1021.48 1021.64 1021.80 1021.92 1022.08 1022.24 1022.36 1022.52 1022.68 1022.84 1023.00 1023.12 1023.24 1023.40 1023.60 1023.76 1023.88 1024.04 1024.24 1024.40 1024.56 1024.64 1024.72 1024.84 1024.92 1025.00 1025.12 1025.20 1025.28 1025.36 1025.44 1025.60 1025.76 1025.88 1025.96 1025.96 1026.00 1026.08 1026.12 1026.24 1026.24 1026.24 1026.28 1026.32 1026.36 1026.40 1026.40 1026.44 1026.44 1026.48 1026.44 1026.48 1026.52 1026.52 1026.56 1026.60 1026.64 1026.68 1026.68 1026.68
1020.28 1020.40 1020.52 1020.64 1020.76 1020.92 1021.08 1021.24 1021.40 1021.56 1021.68 1021.84 1021.96 1022.16 1022.32 1022.44 1022.60 1022.76 1022.96 1023.12 1023.20 1023.32 1023.48 1023.68 1023.84 1023.96 1024.12 1024.24 1024.40 1024.52 1024.68 1024.80 1024.84 1024.96 1025.04 1025.16 1025.24 1025.32 1025.40 1025.56 1025.68 1025.84 1025.92 1025.96 1025.96 1025.96 1026.04 1026.16 1026.24 1026.24 1026.24 1026.28 1026.36 1026.40 1026.44 1026.48 1026.48 1026.52 1026.52 1026.52 1026.56 1026.60 1026.60 1026.64 1026.68 1026.68 1026.72 1026.76 1026.72
1020.28 1020.40 1020.52 1020.64 1020.76 1020.92 1021.08 1021.24 1021.40 1021.60 1021.76 1021.92 1022.08 1022.24 1022.40 1022.52 1022.68 1022.84 1023.00 1023.16 1023.32 1023.44 1023.56 1023.72 1023.88 1024.04 1024.20 1024.32 1024.44 1024.60 1024.72 1024.84 1024.88 1024.96 1025.12 1025.20 1025.24 1025.36 1025.44 1025.60 1025.72 1025.84 1025.92 1025.96 1025.96 1026.00 1026.08 1026.16 1026.24 1026.24 1026.24 1026.32 1026.40 1026.44 1026.48 1026.52 1026.52 1026.56 1026.60 1026.60 1026.64 1026.68 1026.68 1026.72 1026.76 1026.80 1026.84 1026.84 1026.80
1020.36 1020.44 1020.56 1020.68 1020.80 1020.92 1021.12 1021.32 1021.48 1021.64 1021.84 1021.96 1022.12 1022.28 1022.48 1022.64 1022.80 1022.96 1023.08 1023.24 1023.40 1023.56 1023.64 1023.80 1023.92 1024.08 1024.24 1024.40 1024.52 1024.68 1024.80 1024.92 1024.96 1025.04 1025.12 1025.24 1025.28 1025.40 1025.52 1025.68 1025.80 1025.84 1025.88 1025.96 1026.00 1026.04 1026.12 1026.12 1026.16 1026.24 1026.24 1026.36 1026.40 1026.44 1026.48 1026.52 1026.52 1026.52 1026.56 1026.60 1026.64 1026.68 1026.76 1026.84 1026.84 1026.88 1026.92 1026.96 1026.92
1020.44 1020.56 1020.68 1020.76 1020.92 1021.08 1021.24 1021.40 1021.56 1021.68 1021.88 1022.08 1022.24 1022.40 1022.52 1022.68 1022.84 1023.00 1023.16 1023.36 1023.48 1023.60 1023.72 1023.88 1024.00 1024.12 1024.24 1024.40 1024.56 1024.68 1024.84 1024.96 1025.00 1025.08 1025.12 1025.20 1025.32 1025.44 1025.56 1025.68 1025.80 1025.84 1025.92 1025.96 1026.04 1026.08 1026.12 1026.16 1026.20 1026.24 1026.28 1026.36 1026.36 1026.40 1026.44 1026.48 1026.52 1026.52 1026.56 1026.60 1026.68 1026.72 1026.80 1026.84 1026.92 1026.96 1026.96 1027.00 1027.00
1020.56 1020.68 1020.84 1020.96 1021.08 1021.20 1021.32 1021.48 1021.64 1021.80 1021.96 1022.12 1022.28 1022.44 1022.60 1022.80 1022.96 1023.12 1023.28 1023.44 1023.56 1023.68 1023.84 1023.96 1024.12 1024.24 1024.36 1024.48 1024.60 1024.68 1024.80 1024.88 1024.96 1025.04 1025.12 1025.24 1025.36 1025.52 1025.64 1025.72 1025.80 1025.84 1025.92 1025.96 1026.04 1026.12 1026.16 1026.24 1026.24 1026.28 1026.32 1026.32 1026.40 1026.40 1026.44 1026.44 1026.52 1026.52 1026.60 1026.60 1026.68 1026.76 1026.84 1026.88 1026.96 1027.00 1027.04 1027.04 1027.08
1020.68 1020.84 1020.96 1021.12 1021.24 1021.32 1021.40 1021.56 1021.72 1021.88 1022.04 1022.16 1022.36 1022.52 1022.68 1022.84 1023.00 1023.16 1023.32 1023.48 1023.60 1023.72 1023.84 1024.00 1024.20 1024.36 1024.44 1024.52 1024.60 1024.68 1024.68 1024.72 1024.84 1025.00 1025.16 1025.28 1025.44 1025.56 1025.68 1025.76 1025.84 1025.88 1025.96 1026.00 1026.08 1026.16 1026.24 1026.24 1026.32 1026.32 1026.36 1026.36 1026.40 1026.40 1026.48 1026.48 1026.52 1026.52 1026.60 1026.64 1026.72 1026.80 1026.84 1026.92 1027.00 1027.04 1027.04 1027.08 1027.08
1020.80 1020.88 1021.04 1021.20 1021.32 1021.44 1021.56 1021.64 1021.76 1021.88 1022.04 1022.20 1022.40 1022.56 1022.72 1022.88 1023.08 1023.20 1023.32 1023.44 1023.56 1023.72 1023.84 1024.04 1024.20 1024.36 1024.44 1024.52 1024.56 1024.60 1024.64 1024.68 1024.84 1024.96 1025.16 1025.32 1025.44 1025.56 1025.68 1025.80 1025.84 1025.88 1025.96 1026.08 1026.12 1026.20 1026.24 1026.24 1026.28 1026.32 1026.32 1026.36 1026.40 1026.44 1026.52 1026.52 1026.52 1026.56 1026.64 1026.68 1026.72 1026.80 1026.84 1026.96 1026.96 1027.00 1027.04 1027.08 1027.08
1020.84 1020.96 1021.12 1021.24 1021.40 1021.52 1021.60 1021.68 1021.84 1021.96 1022.08 1022.20 1022.36 1022.52 1022.72 1022.92 1023.04 1023.16 1023.28 1023.40 1023.56 1023.72 1023.88 1024.04 1024.16 1024.24 1024.32 1024.36 1024.40 1024.52 1024.64 1024.76 1024.88 1025.00 1025.16 1025.28 1025.40 1025.52 1025.64 1025.68 1025.76 1025.84 1025.96 1026.04 1026.08 1026.16 1026.24 1026.24 1026.24 1026.28 1026.32 1026.40 1026.44 1026.48 1026.52 1026.56 1026.60 1026.64 1026.68 1026.68 1026.80 1026.84 1026.84 1026.88 1026.92 1026.96 1026.96 1027.00 1027.04
1020.96 1021.04 1021.12 1021.24 1021.40 1021.52 1021.68 1021.80 1021.92 1022.04 1022.16 1022.24 1022.40 1022.52 1022.72 1022.88 1022.96 1023.12 1023.28 1023.48 1023.68 1023.84 1023.92 1024.00 1024.08 1024.12 1024.16 1024.24 1024.32 1024.44 1024.60 1024.80 1024.92 1025.04 1025.12 1025.20 1025.28 1025.40 1025.52 1025.56 1025.64 1025.72 1025.84 1025.96 1026.04 1026.12 1026.16 1026.24 1026.24 1026.28 1026.36 1026.40 1026.48 1026.52 1026.52 1026.60 1026.68 1026.68 1026.76 1026.80 1026.84 1026.84 1026.84 1026.84 1026.84 1026.84 1026.88 1026.96 1026.96
1021.04 1021.12 1021.24 1021.32 1021.44 1021.60 1021.76 1021.88 1022.04 1022.12 1022.24 1022.32 1022.44 1022.56 1022.72 1022.84 1022.96 1023.12 1023.28 1023.52 1023.68 1023.84 1023.88 1023.96 1023.96 1024.04 1024.12 1024.20 1024.32 1024.44 1024.60 1024.76 1024.88 1025.00 1025.08 1025.12 1025.20 1025.28 1025.36 1025.40 1025.52 1025.68 1025.80 1025.92 1026.00 1026.08 1026.12 1026.16 1026.24 1026.32 1026.40 1026.44 1026.52 1026.56 1026.60 1026.60 1026.68 1026.80 1026.84 1026.84 1026.84 1026.84 1026.84 1026.84 1026.80 1026.76 1026.80 1026.88 1026.96
1021.12 1021.24 1021.28 1021.40 1021.52 1021.68 1021.84 1021.96 1022.04 1022.16 1022.28 1022.40 1022.52 1022.60 1022.72 1022.84 1023.00 1023.12 1023.28 1023.52 1023.64 1023.72 1023.80 1023.88 1023.96 1024.04 1024.12 1024.24 1024.32 1024.48 1024.64 1024.76 1024.88 1025.00 1025.08 1025.12 1025.16 1025.24 1025.24 1025.28 1025.40 1025.56 1025.72 1025.88 1025.92 1025.96 1026.00 1026.12 1026.16 1026.28 1026.40 1026.44 1026.52 1026.60 1026.64 1026.68 1026.76 1026.84 1026.84 1026.84 1026.84 1026.80 1026.80 1026.84 1026.84 1026.80 1026.84 1026.84 1026.84
1021.20 1021.28 1021.36 1021.48 1021.60 1021.76 1021.88 1022.00 1022.12 1022.20 1022.32 1022.44 1022.52 1022.64 1022.76 1022.92 1023.04 1023.12 1023.24 1023.40 1023.56 1023.64 1023.72 1023.88 1024.00 1024.04 1024.08 1024.24 1024.40 1024.52 1024.68 1024.84 1024.92 1025.00 1025.08 1025.08 1025.12 1025.16 1025.20 1025.20 1025.36 1025.52 1025.68 1025.80 1025.84 1025.88 1025.92 1026.00 1026.12 1026.24 1026.36 1026.48 1026.52 1026.60 1026.68 1026.72 1026.76 1026.80 1026.76 1026.76 1026.76 1026.80 1026.76 1026.80 1026.80 1026.84 1026.84 1026.80 1026.80
1021.28 1021.36 1021.44 1021.56 1021.68 1021.84 1021.96 1022.12 1022.20 1022.28 1022.40 1022.48 1022.60 1022.68 1022.80 1022.92 1023.00 1023.12 1023.24 1023.32 1023.48 1023.64 1023.80 1023.96 1023.96 1024.00 1024.12 1024.24 1024.44 1024.60 1024.72 1024.84 1024.96 1025.04 1025.08 1025.04 1025.04 1025.08 1025.12 1025.20 1025.32 1025.52 1025.68 1025.76 1025.80 1025.76 1025.80 1025.88 1026.00 1026.16 1026.32 1026.44 1026.52 1026.60 1026.64 1026.68 1026.68 1026.68 1026.68 1026.68 1026.72 1026.76 1026.76 1026.76 1026.80 1026.84 1026.80 1026.76 1026.76
1021.36 1021.40 1021.52 1021.64 1021.76 1021.92 1022.08 1022.24 1022.28 1022.36 1022.44 1022.52 1022.60 1022.68 1022.76 1022.84 1022.96 1023.08 1023.24 1023.40 1023.52 1023.68 1023.84 1023.88 1023.96 1024.04 1024.24 1024.40 1024.52 1024.64 1024.72 1024.88 1024.96 1025.04 1025.04 1025.04 1025.04 1025.12 1025.16 1025.24 1025.32 1025.48 1025.64 1025.68 1025.68 1025.64 1025.64 1025.72 1025.88 1026.08 1026.24 1026.40 1026.52 1026.56 1026.56 1026.56 1026.60 1026.60 1026.60 1026.60 1026.68 1026.72 1026.76 1026.72 1026.72 1026.72 1026.72 1026.72 1026.68
1021.40 1021.48 1021.56 1021.68 1021.84 1021.96 1022.12 1022.24 1022.32 1022.40 1022.44 1022.52 1022.60 1022.68 1022.76 1022.88 1022.96 1023.12 1023.28 1023.40 1023.56 1023.68 1023.80 1023.84 1023.96 1024.12 1024.24 1024.40 1024.52 1024.64 1024.76 1024.88 1024.96 1025.04 1025.04 1025.04 1025.08 1025.12 1025.20 1025.28 1025.40 1025.48 1025.60 1025.68 1025.64 1025.56 1025.56 1025.60 1025.72 1025.96 1026.20 1026.40 1026.52 1026.48 1026.44 1026.48 1026.52 1026.52 1026.52 1026.56 1026.68 1026.72 1026.72 1026.72 1026.68 1026.68 1026.72 1026.72 1026.68
1021.44 1021.56 1021.64 1021.72 1021.84 1022.00 1022.12 1022.20 1022.32 1022.40 1022.48 1022.52 1022.60 1022.68 1022.76 1022.92 1023.04 1023.20 1023.36 1023.48 1023.60 1023.68 1023.80 1023.88 1024.00 1024.16 1024.28 1024.40 1024.52 1024.60 1024.72 1024.84 1024.96 1024.96 1025.00 1025.00 1025.08 1025.12 1025.24 1025.36 1025.48 1025.56 1025.64 1025.64 1025.56 1025.56 1025.52 1025.48 1025.56 1025.84 1026.12 1026.36 1026.40 1026.40 1026.36 1026.40 1026.44 1026.44 1026.48 1026.52 1026.64 1026.68 1026.72 1026.76 1026.76 1026.76 1026.76 1026.76 1026.72
1021.40 1021.52 1021.64 1021.72 1021.84 1021.96 1022.12 1022.20 1022.28 1022.40 1022.48 1022.52 1022.56 1022.68 1022.80 1022.96 1023.16 1023.28 1023.40 1023.56 1023.68 1023.76 1023.84 1023.96 1024.12 1024.24 1024.36 1024.44 1024.52 1024.64 1024.68 1024.84 1024.88 1024.96 1024.96 1025.04 1025.08 1025.12 1025.24 1025.32 1025.48 1025.56 1025.64 1025.60 1025.56 1025.48 1025.44 1025.40 1025.56 1025.80 1026.08 1026.28 1026.36 1026.36 1026.32 1026.32 1026.36 1026.36 1026.40 1026.52 1026.56 1026.68 1026.72 1026.80 1026.80 1026.84 1026.84 1026.84 1026.76
1021.40 1021.48 1021.56 1021.68 1021.84 1021.96 1022.08 1022.16 1022.24 1022.32 1022.40 1022.48 1022.56 1022.68 1022.84 1023.04 1023.24 1023.40 1023.52 1023.68 1023.72 1023.84 1023.96 1024.08 1024.24 1024.32 1024.40 1024.52 1024.60 1024.64 1024.64 1024.68 1024.80 1024.88 1024.96 1025.00 1025.00 1025.08 1025.16 1025.28 1025.40 1025.52 1025.56 1025.52 1025.44 1025.40 1025.44 1025.44 1025.56 1025.76 1026.00 1026.20 1026.28 1026.28 1026.28 1026.28 1026.28 1026.36 1026.40 1026.44 1026.52 1026.60 1026.68 1026.76 1026.80 1026.84 1026.84 1026.84 1026.80
1021.36 1021.40 1021.52 1021.64 1021.72 1021.88 1022.00 1022.12 1022.16 1022.24 1022.36 1022.48 1022.60 1022.76 1022.96 1023.16 1023.40 1023.56 1023.68 1023.76 1023.80 1023.88 1023.96 1024.12 1024.20 1024.28 1024.40 1024.52 1024.56 1024.56 1024.56 1024.64 1024.72 1024.84 1024.84 1024.92 1024.92 1024.96 1025.04 1025.16 1025.28 1025.40 1025.48 1025.44 1025.44 1025.44 1025.44 1025.48 1025.56 1025.76 1025.96 1026.12 1026.20 1026.24 1026.24 1026.24 1026.28 1026.36 1026.40 1026.40 1026.48 1026.52 1026.64 1026.72 1026.80 1026.84 1026.84 1026.84 1026.88
1021.28 1021.36 1021.44 1021.52 1021.64 1021.76 1021.92 1022.00 1022.08 1022.20 1022.28 1022.44 1022.64 1022.84 1023.04 1023.24 1023.44 1023.64 1023.72 1023.80 1023.84 1023.88 1023.96 1024.04 1024.12 1024.20 1024.28 1024.40 1024.48 1024.52 1024.52 1024.64 1024.72 1024.76 1024.84 1024.84 1024.84 1024.84 1024.96 1025.04 1025.16 1025.28 1025.40 1025.48 1025.44 1025.44 1025.48 1025.52 1025.60 1025.80 1025.96 1026.04 1026.12 1026.16 1026.20 1026.20 1026.24 1026.28 1026.32 1026.40 1026.40 1026.52 1026.60 1026.68 1026.80 1026.84 1026.84 1026.84 1026.92
1021.20 1021.28 1021.36 1021.44 1021.56 1021.68 1021.84 1021.92 1022.00 1022.12 1022.28 1022.48 1022.68 1022.88 1023.08 1023.24 1023.40 1023.56 1023.68 1023.76 1023.80 1023.84 1023.92 1023.96 1024.04 1024.12 1024.24 1024.28 1024.36 1024.40 1024.48 1024.60 1024.68 1024.72 1024.76 1024.80 1024.84 1024.84 1024.88 1024.96 1025.08 1025.20 1025.36 1025.44 1025.48 1025.48 1025.52 1025.56 1025.64 1025.80 1025.92 1025.96 1026.04 1026.08 1026.08 1026.12 1026.20 1026.24 1026.24 1026.28 1026.32 1026.44 1026.56 1026.68 1026.72 1026.80 1026.80 1026.80 1026.92
1021.12 1021.20 1021.24 1021.36 1021.48 1021.60 1021.72 1021.84 1021.96 1022.12 1022.32 1022.52 1022.68 1022.84 1023.04 1023.16 1023.32 1023.44 1023.56 1023.68 1023.72 1023.80 1023.84 1023.92 1023.96 1024.04 1024.12 1024.20 1024.24 1024.28 1024.40 1024.52 1024.60 1024.68 1024.72 1024.76 1024.84 1024.92 1024.96 1024.96 1025.00 1025.12 1025.24 1025.40 1025.52 1025.52 1025.52 1025.56 1025.64 1025.76 1025.84 1025.88 1025.96 1026.00 1026.00 1026.08 1026.12 1026.16 1026.16 1026.20 1026.24 1026.36 1026.48 1026.52 1026.64 1026.68 1026.68 1026.68 1026.80
1021.00 1021.12 1021.20 1021.24 1021.40 1021.52 1021.68 1021.76 1021.96 1022.12 1022.36 1022.52 1022.64 1022.76 1022.92 1023.08 1023.20 1023.32 1023.40 1023.52 1023.60 1023.68 1023.72 1023.80 1023.84 1023.92 1024.00 1024.08 1024.12 1024.20 1024.28 1024.40 1024.52 1024.60 1024.68 1024.72 1024.84 1024.96 1025.00 1025.00 1024.96 1025.00 1025.16 1025.32 1025.44 1025.52 1025.56 1025.52 1025.56 1025.68 1025.80 1025.76 1025.84 1025.92 1025.96 1026.00 1026.00 1026.04 1026.08 1026.12 1026.20 1026.24 1026.32 1026.40 1026.48 1026.52 1026.56 1026.60 1026.60
Wind_Speed
6 5 5 5 5 5 5 5 5 5 5 5 5 4 4 5 5 5 5 4 4 4 4 5 6 7 8 10 10 9 8 8 8 9 9 9 9 10 10 9 9 9 9 9 9 8 8 8 7 5 4 4 5 5 4 3 3 2 2 2 2 2 3 4 4 5 6 6 4
6 6 6 6 6 5 5 5 5 5 5 5 5 5 5 4 5 5 5 5 4 4 4 5 6 8 9 11 10 9 9 9 9 9 9 9 9 9 9 9 9 10 10 10 9 8 7 7 7 6 5 5 5 4 4 3 2 2 2 2 2 2 2 3 4 5 5 5 5
7 7 6 6 6 6 6 6 6 7 7 6 5 5 5 5 5 5 5 5 5 5 5 5 6 8 10 11 9 9 9 9 9 9 9 8 9 9 9 9 10 10 10 9 8 8 7 7 6 5 5 4 4 4 4 3 2 1 2 3 2 2 3 3 4 4 4 3 4
7 7 7 7 7 7 7 6 8 8 8 7 6 6 6 5 5 5 6 6 6 6 5 5 6 7 9 9 9 9 9 9 10 9 9 8 8 9 10 10 11 10 10 9 9 9 8 7 6 5 5 5 5 4 3 2 1 1 1 2 2 2 2 2 2 2 2 2 3
7 7 7 7 8 8 8 8 9 9 8 7 6 6 5 5 5 6 6 6 6 6 7 7 7 7 8 9 10 10 10 10 10 9 9 9 9 9 9 10 10 10 9 9 9 9 8 7 5 4 4 5 4 4 3 3 2 1 1 1 2 2 2 2 2 2 2 2 2
7 7 7 7 8 8 7 8 9 9 8 7 8 7 7 6 6 6 7 6 7 8 9 10 9 8 9 10 10 10 10 9 8 8 8 9 8 9 9 10 10 9 9 8 9 8 8 6 5 4 4 4 4 4 4 4 3 2 1 2 1 1 2 2 2 2 2 3 3
6 6 6 7 7 7 7 8 9 9 8 8 9 9 9 8 8 9 9 8 8 9 9 9 9 9 9 10 10 9 9 8 8 8 8 8 8 9 9 9 10 9 9 9 8 8 7 6 4 4 4 4 3 4 5 4 3 3 2 2 2 2 2 2 2 2 2 4 4
5 5 6 6 7 7 8 9 9 8 8 7 9 10 10 9 10 10 10 10 9 9 8 8 9 10 10 10 10 9 9 9 8 8 8 8 9 9 10 10 10 10 9 9 8 7 6 5 4 4 4 4 4 4 5 5 5 4 4 3 3 2 2 2 2 2 3 5 5
4 5 5 5 6 7 8 8 8 8 8 8 9 10 11 10 10 10 10 9 9 8 8 7 9 9 10 10 10 9 9 8 8 8 8 8 9 9 9 9 9 9 8 8 7 7 6 4 4 4 4 4 4 4 5 6 6 5 4 4 3 3 2 2 2 3 4 5 6
5 5 5 5 6 7 7 7 8 8 9 9 10 11 11 11 10 9 8 7 7 7 7 7 8 8 9 9 9 9 8 8 8 8 8 9 9 9 9 8 8 8 7 7 6 6 5 4 4 5 5 4 4 5 5 5 6 5 5 3 4 4 4 3 3 4 4 5 6
5 5 6 6 6 7 7 7 7 7 8 9 10 11 11 10 9 8 7 6 7 7 7 7 7 8 7 7 7 8 8 7 7 8 8 9 9 9 8 8 7 7 7 6 5 5 5 4 5 5 5 4 4 4 5 5 6 6 5 5 5 5 5 5 4 5 5 5 6
6 6 6 6 7 7 7 7 6 7 8 9 10 10 9 9 9 8 7 7 7 7 7 7 7 7 7 6 7 7 7 8 8 8 9 9 9 9 8 8 7 7 6 6 5 4 4 4 5 5 5 4 3 3 4 6 6 6 6 6 6 6 6 6 6 5 4 5 5
6 6 6 7 7 7 7 6 6 6 7 8 9 8 8 8 8 8 7 8 7 7 6 7 7 7 6 6 7 7 7 8 8 8 8 9 9 8 8 8 7 6 6 5 4 4 4 4 5 5 4 4 3 3 4 6 6 7 7 7 7 7 6 7 6 6 5 5 5
6 7 7 7 7 7 6 6 6 6 7 8 8 7 7 7 8 8 8 8 8 7 7 7 7 7 7 7 7 8 8 8 9 9 9 9 8 8 8 7 7 6 5 4 4 4 4 4 4 4 4 4 4 4 5 6 6 6 6 7 7 7 7 7 6 6 6 6 6
7 7 7 7 7 6 6 6 5 5 6 7 7 7 7 7 7 7 7 8 8 8 7 8 7 8 8 8 8 8 9 9 9 10 9 9 9 8 7 7 6 5 4 3 3 3 3 3 4 4 4 5 5 5 5 5 5 5 6 6 6 6 6 6 6 6 6 6 6
7 7 7 7 7 6 6 6 5 5 6 6 7 7 7 6 7 7 8 8 8 7 8 8 8 9 9 9 9 9 9 9 9 9 9 9 8 8 7 7 6 5 4 4 3 3 3 3 3 4 4 5 5 5 5 5 5 5 5 5 5 6 6 6 6 6 6 6 6
6 7 7 7 7 7 6 6 5 5 6 6 7 7 7 6 6 7 8 8 8 8 8 9 9 9 9 9 9 9 8 9 9 9 8 8 8 8 7 7 6 5 5 4 4 3 3 3 3 3 4 5 5 5 5 5 4 4 5 5 5 5 5 5 5 5 5 5 5
6 6 6 6 7 7 7 6 6 6 7 7 7 7 7 6 7 7 7 8 8 9 10 10 9 9 9 10 9 8 8 8 8 8 8 8 8 8 7 7 6 6 5 5 4 4 4 3 4 4 4 5 5 5 4 4 4 4 4 4 4 4 4 4 4 4 4 4 4
6 6 6 6 7 7 7 7 7 7 7 7 7 7 7 7 7 8 8 8 8 9 10 10 9 9 9 10 9 8 7 8 9 9 9 9 8 8 7 7 6 5 5 4 4 4 4 4 4 5 5 5 5 4 4 4 4 4 4 3 3 3 3 3 3 3 3 3 4
6 6 6 6 7 7 8 8 8 8 8 7 8 8 8 8 8 8 8 8 9 9 10 10 9 9 9 9 9 8 7 7 8 9 9 9 8 8 7 7 6 5 5 4 3 3 4 5 5 5 5 5 5 5 5 4 4 4 4 4 3 3 3 2 2 2 2 3 3
6 6 6 6 7 7 8 8 8 8 8 8 8 8 8 8 8 9 9 9 9 9 9 9 9 9 9 9 9 9 8 7 8 9 9 9 8 8 7 6 5 5 4 4 3 4 4 5 6 6 6 6 6 6 5 5 5 5 4 4 3 3 3 2 2 2 2 2 2
6 6 7 7 7 7 8 8 8 8 8 8 9 9 9 9 9 9 9 9 9 9 9 9 9 10 10 10 9 9 8 8 9 9 9 8 8 7 6 5 5 4 4 4 4 4 5 5 6 6 6 6 6 6 6 5 5 5 4 4 4 3 3 2 2 1 1 2 2
7 7 6 7 7 8 8 8 8 8 9 9 9 9 9 9 9 9 9 9 9 9 9 9 9 9 10 10 10 10 10 10 10 10 9 8 7 6 5 5 4 4 4 4 4 5 5 5 5 6 6 6 6 6 6 5 5 4 4 4 4 4 3 3 2 2 1 1 1
7 7 6 6 7 7 8 8 8 9 9 9 9 9 9 9 9 9 9 9 9 9 9 8 8 9 9 10 10 11 11 12 11 10 9 8 7 6 5 4 4 4 4 3 4 5 5 4 5 5 5 5 5 5 5 5 4 4 4 4 4 4 3 3 2 2 2 1 2
7 7 7 7 7 7 8 8 8 9 9 9 9 9 9 9 9 9 9 10 10 10 10 9 9 9 9 10 11 11 12 12 11 10 9 8 7 6 5 4 3 3 3 4 6 7 7 6 5 5 5 5 5 4 4 4 4 4 4 4 4 4 4 3 3 3 3 2 2
7 8 8 8 8 8 8 8 8 9 9 9 10 10 10 10 9 10 10 10 10 10 10 10 9 9 10 10 11 11 11 10 10 9 9 8 7 6 5 4 4 4 4 5 8 9 9 8 7 6 5 4 4 4 4 4 4 4 4 4 4 4 4 4 4 4 4 4 3
7 8 8 8 8 8 8 8 8 8 9 9 10 10 10 9 9 10 10 10 9 9 9 9 9 10 10 10 11 11 11 9 9 9 9 8 7 7 6 6 5 5 5 7 10 11 11 10 9 8 6 5 5 4 4 4 4 4 4 4 4 4 4 5 5 5 5 4 4
8 8 8 9 9 9 8 8 8 9 9 9 9 9 9 10 10 10 10 10 10 9 8 8 8 8 8 9 10 11 10 9 8 8 7 7 7 7 7 7 6 6 6 9 11 12 12 11 11 10 8 6 5 4 4 4 4 4 4 4 4 4 4 4 4 4 4 4 4
8 8 8 9 9 9 9 8 9 9 9 9 9 9 9 9 10 10 10 10 10 9 8 7 7 6 7 8 9 10 9 8 7 6 5 6 6 7 7 7 7 7 8 10 11 12 12 12 12 11 10 8 5 4 4 4 4 4 4 4 4 4 4 3 3 3 3 4 4
8 8 8 9 9 9 8 8 8 9 9 8 9 9 9 10 10 10 11 11 10 9 8 7 7 7 8 9 9 8 7 7 6 5 5 6 6 7 7 8 7 8 9 11 12 12 13 13 13 12 12 10 7 5 4 4 5 5 4 4 3 3 3 3 3 3 3 3 4
8 8 9 9 9 9 8 7 8 8 8 8 9 9 9 10 10 10 10 10 9 9 8 8 9 9 9 9 8 7 7 6 5 5 5 6 7 7 8 8 8 8 8 11 12 13 13 14 14 14 13 11 8 6 5 5 5 5 4 4 3 3 2 2 3 3 3 3 3
8 8 9 9 9 9 8 7 7 8 8 9 9 9 10 10 10 10 9 9 9 9 9 9 10 10 9 8 7 7 7 6 6 5 6 6 7 7 7 7 7 7 8 9 11 12 12 14 14 15 14 13 9 7 6 6 6 5 4 4 3 2 2 2 2 2 2 2 3
9 9 9 9 9 9 9 8 8 8 8 9 9 9 9 9 9 9 8 8 8 9 9 10 10 10 9 8 8 7 7 6 6 6 6 7 7 7 7 7 6 6 6 8 9 9 10 11 14 15 15 13 9 7 7 6 5 4 4 3 3 2 2 1 1 1 1 2 2
9 9 9 9 9 9 9 9 9 9 9 9 9 9 9 9 8 8 8 8 8 8 9 9 9 9 8 8 8 8 7 6 6 7 7 7 8 8 7 6 4 4 5 7 7 7 7 9 12 15 15 13 9 7 6 6 5 4 3 3 3 2 1 1 1 1 1 1 2
10 10 9 9 9 9 10 10 9 9 9 9 10 9 9 8 8 8 8 8 8 8 8 8 8 8 7 7 7 7 8 8 8 8 8 8 8 8 8 7 5 5 6 7 6 6 6 7 11 14 15 12 8 6 5 5 4 4 4 4 3 3 2 1 1 1 1 2 2
10 10 10 10 10 10 10 10 10 10 10 10 10 10 9 8 7 7 7 7 8 8 8 8 8 7 7 7 7 7 8 9 9 9 8 8 9 9 9 8 7 7 7 7 6 6 6 8 11 14 13 10 6 5 5 4 4 4 4 4 3 3 3 2 1 2 2 2 2
11 11 11 11 11 11 11 11 11 11 11 11 10 10 9 8 7 6 6 7 7 8 8 8 8 8 8 8 7 8 9 9 9 9 9 9 9 10 10 9 8 8 7 7 6 6 6 8 11 12 12 8 5 4 4 4 3 3 3 3 3 3 3 2 2 2 2 3 2
11 11 11 11 11 11 11 11 11 11 11 11 10 10 9 8 7 7 6 7 7 8 8 9 9 9 9 9 9 9 9 9 9 9 9 9 9 9 9 9 9 8 7 6 6 6 6 8 10 11 10 7 5 5 4 3 3 3 3 3 3 3 3 2 2 2 3 3 3
12 12 12 12 12 12 12 12 12 11 11 10 10 9 9 8 7 7 7 8 8 8 9 9 10 10 10 10 9 9 9 9 9 9 9 9 8 8 8 8 8 8 7 6 5 5 5 7 10 10 9 6 5 4 4 3 3 4 3 3 3 3 3 2 2 2 3 4 4
12 12 12 12 12 12 12 12 12 11 10 10 10 10 9 9 8 8 8 8 8 9 9 10 11 11 10 11 10 10 10 10 9 9 9 8 8 8 7 7 8 8 7 6 5 5 5 6 9 10 9 6 5 4 3 3 4 4 4 3 3 3 3 3 3 3 3 3 4
12 12 12 12 12 12 12 12 11 10 10 9 10 9 9 9 8 8 9 8 9 9 9 9 11 11 11 10 10 10 10 10 10 9 9 8 7 7 7 6 7 7 8 7 6 5 5 6 8 9 9 6 5 4 3 3 4 4 4 4 3 3 3 3 3 3 3 3 3
Wind_Direction
113 114 115 116 116 116 115 113 113 111 111 113 116 119 122 125 126 126 125 122 122 121 122 123 129 132 134 134 130 126 121 115 108 106 106 107 109 110 110 108 105 102 101 100 97 95 92 92 94 95 94 91 86 81 75 72 73 70 64 65 75 83 86 86 85 82 79 75 70
119 119 119 119 120 119 119 118 117 117 118 118 119 119 120 121 122 122 121 119 121 120 119 120 130 134 136 134 131 127 122 116 111 108 107 107 109 109 108 105 102 99 97 95 93 92 92 93 93 93 92 90 90 88 84 78 75 64 49 49 61 65 66 67 69 70 71 70 67
126 126 126 127 130 131 131 130 130 130 129 127 128 128 128 127 125 123 121 121 120 119 117 118 126 131 133 132 129 125 121 117 114 113 111 110 109 108 106 102 97 93 90 89 89 92 95 97 97 98 99 101 98 94 88 81 67 40 29 37 43 48 52 56 58 62 66 72 76
135 136 137 139 141 141 140 139 138 137 136 134 134 133 133 133 130 127 125 124 120 118 116 117 120 126 129 129 126 123 120 118 118 116 114 113 110 106 103 100 95 92 90 90 92 97 101 105 105 104 103 101 98 95 93 99 84 41 35 43 48 58 66 70 71 77 88 101 106
143 145 147 149 148 146 143 140 141 141 140 139 138 137 135 132 131 131 131 131 129 126 123 121 119 123 126 126 123 121 119 119 118 116 114 112 107 102 98 96 95 94 93 93 97 101 104 105 102 98 96 96 99 105 121 151 165 139 79 70 69 79 96 111 115 119 124 129 131
147 149 151 152 150 147 143 142 143 143 142 143 143 142 140 139 139 139 138 136 133 129 127 124 124 126 128 127 123 120 118 116 115 113 112 108 104 99 96 94 95 96 97 98 100 101 100 97 93 92 95 102 116 134 155 173 178 163 133 116 112 117 125 130 127 132 139 142 141
147 150 152 151 149 145 142 143 143 143 144 144 146 145 145 145 145 144 142 139 137 135 134 132 134 134 134 131 125 121 118 116 114 113 112 110 107 104 102 101 102 103 105 105 104 101 98 95 99 106 118 129 141 159 172 185 186 177 160 147 135 127 121 120 121 137 152 154 152
143 145 146 145 143 141 141 142 143 144 145 146 147 147 146 145 146 146 146 144 144 144 143 140 141 141 139 134 129 125 122 120 119 116 114 112 110 109 110 111 111 110 110 109 108 106 104 104 116 131 144 150 157 169 179 186 187 180 166 148 134 121 114 115 131 154 167 164 160
132 133 133 135 135 136 138 141 143 144 144 145 146 145 145 144 147 149 150 149 150 149 145 141 143 142 139 135 132 129 126 124 123 120 117 114 114 115 115 114 113 112 111 110 110 111 114 121 139 150 154 157 161 167 175 182 182 174 160 140 132 127 125 130 156 172 175 171 164
126 127 128 129 132 134 136 139 141 141 140 141 143 144 145 147 149 151 153 152 152 149 145 140 141 140 137 134 130 128 126 124 124 123 122 120 119 117 116 114 113 113 112 112 114 120 128 138 147 149 150 152 155 158 164 175 174 165 151 134 135 138 143 154 171 178 177 173 166
126 127 129 131 134 135 137 138 140 140 140 141 144 147 149 151 151 151 150 148 149 146 142 137 137 136 133 128 125 124 123 122 123 121 119 117 115 113 112 111 111 111 111 113 121 131 139 143 146 149 150 149 148 151 159 169 167 157 145 137 143 149 155 164 174 178 177 172 167
123 125 127 131 134 136 138 140 141 142 144 146 149 151 153 153 152 148 144 143 143 139 134 130 130 127 124 119 118 118 118 118 117 114 112 110 108 107 105 104 104 105 108 116 127 134 141 146 151 155 156 151 151 159 167 170 165 156 149 147 154 159 164 168 174 175 175 174 169
121 123 125 127 130 132 134 136 139 143 146 149 151 152 152 150 148 145 142 140 136 131 124 120 117 115 114 114 115 116 115 114 113 111 110 108 107 105 102 100 102 105 111 120 128 136 145 153 160 163 164 164 171 177 178 175 168 160 156 157 163 166 168 169 172 173 175 178 176
121 122 124 125 126 127 127 129 132 138 143 145 146 145 143 144 144 142 139 136 131 125 119 114 110 108 109 112 113 114 114 113 112 110 109 109 108 106 105 105 108 111 115 121 133 148 159 165 169 173 175 177 182 184 183 178 171 166 164 166 169 170 170 169 171 173 177 181 180
121 123 124 124 124 124 124 126 128 133 137 139 138 138 138 139 141 139 135 131 127 123 119 115 112 109 108 109 110 111 112 112 112 111 110 109 109 110 112 115 116 118 122 134 152 167 175 175 178 181 184 185 183 183 181 178 173 171 170 173 174 172 170 169 172 176 180 184 184
124 124 125 125 125 124 124 125 126 130 134 135 135 136 136 137 138 135 132 129 127 123 121 119 117 115 113 111 110 110 111 112 112 112 112 113 115 118 121 124 125 130 141 160 174 183 188 185 185 188 189 186 182 178 177 178 176 175 175 178 177 174 172 172 178 182 186 188 190
125 126 127 127 126 126 125 125 126 129 132 133 134 134 134 134 134 133 132 130 128 126 125 124 122 121 120 118 116 115 115 115 115 115 117 120 124 128 131 132 138 149 165 179 186 190 190 186 188 192 189 183 177 173 173 177 179 179 180 182 179 176 175 177 183 189 193 196 198
126 127 129 129 128 127 126 125 125 127 129 130 131 130 130 129 129 130 130 129 129 128 128 126 125 124 124 124 123 123 122 122 122 123 125 129 133 136 139 143 152 165 179 190 194 192 189 183 185 187 184 174 168 167 171 177 178 179 179 181 179 178 178 182 189 195 201 205 208
126 128 129 130 129 128 126 126 126 127 127 128 128 127 126 125 126 126 127 129 129 128 128 126 125 124 124 125 126 126 126 127 128 130 133 136 140 143 147 153 163 175 186 197 199 195 186 179 181 179 174 162 159 161 166 172 171 171 171 173 174 177 181 187 195 205 214 218 216
125 126 128 128 128 128 127 127 128 128 128 128 128 128 127 126 125 126 128 130 129 128 126 126 125 125 125 125 125 126 127 129 132 135 138 142 146 150 154 161 170 179 189 197 200 193 184 177 177 173 166 157 156 158 162 166 165 166 168 169 171 174 179 187 198 212 226 233 229
121 121 122 122 123 124 125 126 127 128 128 128 129 129 128 127 127 128 129 130 129 127 126 126 126 127 127 127 127 129 131 133 136 140 143 147 151 155 160 167 175 182 188 194 195 189 181 176 172 167 161 158 159 160 162 164 165 166 167 168 166 166 167 176 189 206 224 237 241
116 115 116 116 117 119 120 123 124 126 126 127 128 129 129 128 129 129 129 129 128 128 127 128 129 130 131 132 133 135 137 140 143 145 148 151 155 159 166 173 179 184 189 191 188 183 178 173 168 164 162 162 162 163 163 164 163 163 162 160 156 153 152 155 167 184 207 227 238
114 113 113 113 115 118 120 122 123 124 125 126 127 128 128 128 128 128 129 130 130 130 131 130 131 133 135 137 139 141 144 146 148 149 151 153 158 164 171 178 184 189 190 186 182 178 173 168 166 164 165 165 164 163 163 162 160 159 158 156 151 147 143 142 143 150 167 190 213
118 117 116 114 119 122 123 124 125 127 128 128 128 128 129 129 129 131 133 135 136 136 136 136 137 139 141 143 145 148 149 150 150 150 153 157 162 168 174 181 189 191 188 181 179 176 173 166 166 167 168 167 164 162 161 162 161 160 159 159 156 153 149 146 147 150 158 171 193
123 122 120 121 123 124 124 126 128 129 130 130 130 130 130 131 133 135 137 138 139 139 139 139 141 144 147 149 151 151 151 150 150 153 157 164 168 172 175 181 186 187 184 183 183 182 178 172 169 168 167 165 160 160 160 164 164 165 165 166 166 166 165 167 171 174 179 184 202
126 124 124 126 126 126 126 126 127 128 129 130 130 131 132 134 136 137 137 136 136 136 137 140 144 148 151 152 153 152 151 150 154 159 163 169 173 176 180 184 183 181 183 186 186 185 183 176 171 167 164 160 159 159 161 164 166 168 169 171 176 180 184 189 192 196 199 199 208
129 128 128 128 126 125 125 125 126 127 129 130 130 132 134 138 138 136 134 132 132 134 137 142 146 149 151 151 151 151 152 154 160 165 170 174 175 178 182 184 178 177 181 186 188 188 186 179 171 167 163 160 161 162 164 162 165 168 171 176 184 193 199 205 205 205 204 205 210
133 132 130 128 124 123 123 124 127 129 130 132 132 134 136 137 136 135 134 133 134 137 140 143 145 147 149 150 151 153 155 158 164 169 173 176 177 180 182 181 175 174 179 185 188 189 187 181 173 168 165 163 163 163 163 160 163 169 176 181 190 197 205 212 215 214 211 208 210
136 134 132 129 125 125 126 129 131 132 133 133 133 134 135 135 135 135 136 137 140 142 143 142 143 146 148 150 153 154 157 160 164 170 176 180 182 183 182 178 172 173 179 185 189 189 187 183 177 172 168 166 165 163 162 162 168 174 181 185 193 198 202 209 216 220 218 214 212
139 137 135 131 129 128 129 130 130 131 131 132 133 134 134 134 136 138 140 141 144 144 143 140 144 148 151 151 152 155 159 162 167 175 183 186 184 183 180 176 171 172 179 188 191 189 185 182 180 176 172 169 167 165 166 169 175 180 183 184 189 194 199 207 214 219 222 221 218
143 141 138 135 132 129 127 126 127 129 131 133 135 137 138 138 141 142 142 143 143 141 140 142 148 150 150 148 151 156 161 166 173 181 187 187 181 177 174 172 169 171 180 191 195 192 187 182 181 178 175 172 171 172 174 176 180 183 182 179 180 185 194 207 215 221 225 229 226
148 145 142 138 134 131 129 129 132 133 134 136 139 141 142 142 142 141 141 142 140 139 141 147 150 149 148 148 155 160 165 169 176 182 184 181 173 169 168 168 167 170 180 195 202 200 194 187 183 179 175 173 174 177 180 181 183 183 178 170 169 175 189 212 219 222 226 234 236
152 149 146 142 139 138 138 141 142 140 140 141 145 145 144 141 139 138 139 141 141 144 148 152 151 151 151 155 161 164 166 169 175 177 175 172 167 164 164 165 165 170 183 201 208 208 204 197 185 178 174 174 177 182 185 184 185 182 175 162 161 164 182 219 241 243 242 247 248
157 153 150 148 146 146 147 149 149 148 147 148 150 149 146 141 139 140 142 145 146 149 152 154 153 153 156 162 164 164 164 166 169 170 169 166 164 163 163 162 163 178 196 211 210 208 204 199 180 172 170 174 179 185 188 186 187 182 172 160 156 158 166 199 245 270 274 269 261
161 158 156 153 153 153 154 155 156 156 156 155 155 154 149 143 143 145 148 148 150 152 153 152 152 154 157 162 163 164 164 164 166 166 166 166 166 165 164 163 170 190 205 212 201 192 183 180 166 164 165 172 180 188 192 190 190 183 173 164 160 160 163 182 211 239 256 264 268
164 163 161 159 159 159 160 162 163 163 162 161 160 157 153 147 147 148 148 149 152 153 153 152 154 156 158 161 165 167 167 166 166 167 169 170 170 169 167 167 175 189 199 203 187 175 167 164 158 159 162 170 179 189 193 194 191 184 178 176 168 164 164 178 208 232 249 257 266
168 167 165 164 163 164 166 168 169 168 167 165 162 159 156 151 148 148 150 153 156 157 157 157 160 162 164 165 170 172 171 168 169 171 174 176 176 173 170 169 173 181 187 190 176 167 161 159 156 158 161 170 178 186 191 195 192 189 186 188 177 168 164 176 208 230 243 251 259
172 171 169 168 168 169 170 172 173 172 169 166 163 160 158 154 152 154 159 164 163 162 162 164 167 169 169 170 173 174 173 172 174 177 179 182 181 177 173 170 170 172 176 179 173 166 161 159 157 159 163 173 180 186 191 195 195 195 196 197 186 174 168 178 209 230 238 241 249
174 174 173 171 171 172 173 176 175 173 169 165 163 162 161 160 160 163 167 172 170 168 168 170 173 174 173 173 175 176 176 177 180 182 183 185 185 183 179 174 169 168 169 174 177 174 167 162 160 163 169 176 183 188 192 195 198 201 203 204 195 182 177 186 210 229 236 234 238
175 176 175 175 174 175 176 177 175 172 168 164 164 164 165 167 166 167 171 173 173 174 174 176 178 177 177 177 178 179 179 181 185 186 186 186 186 187 188 184 173 169 169 173 182 186 183 173 167 169 175 181 185 188 193 195 201 205 207 208 204 197 192 193 206 222 233 233 230
176 177 178 178 177 177 177 177 174 170 166 165 167 168 168 169 168 170 173 175 176 178 179 180 180 180 180 182 182 181 182 184 186 188 188 185 185 189 194 197 184 176 174 175 183 194 199 193 177 176 178 184 184 187 192 199 206 210 211 211 210 210 209 205 208 217 227 234 232